Paris, IL

12:12 PM CDT on August 18, 2017 (GMT -0500)
Edgar County

Weather History for KPRG - March, 2014

Change the Weather History Date:

Friday, March 21, 2014

  Actual Average (KHUF) Record (KHUF)
Temperature  
Mean Temperature 52 °F -  
Max Temperature 70 °F 54 °F 85 °F (2012)
Min Temperature 33 °F 33 °F 14 °F (1965)
Degree Days  
Heating Degree Days 14    
Growing Degree Days 2 (Base 50)    
Moisture  
Dew Point 35 °F    
Average Humidity 57    
Maximum Humidity 86    
Minimum Humidity 30    
Precipitation  
Precipitation 0.00 in - - ()
Sea Level Pressure  
Sea Level Pressure 29.89 in    
Wind  
Wind Speed 9 mph (South)    
Max Wind Speed 24 mph    
Max Gust Speed 31 mph    
Visibility 10 miles    
Events      
Averages and records for this station are not official NWS values.
T = Trace of Precipitation, MM = Missing Value Source: NWS Daily Summary

Daily Weather History Graph

Daily Weather History Graph

Search for Another Location

Airport or City:

Trip Planner

Search our weather history database for the weather conditions in past years. The results will help you decide how hot, cold, wet, or windy it might be!

Date:

Astronomy

Mar. 21, 2014 Rise Set
Actual Time 6:52 AM CDT 7:03 PM CDT
Civil Twilight 6:25 AM CDT 7:30 PM CDT
Nautical Twilight 5:54 AM CDT 8:02 PM CDT
Astronomical Twilight 5:22 AM CDT 8:34 PM CDT
Moon No Moon Rise 9:44 AM CDT (3/21)
Length of Visible Light 13h 05m
Length of Day
12h 11m
Waning Gibbous, 75% of the Moon is Illuminated
Mar 21
Waning Gibbous
Mar 23
Last Quarter
Mar 30
New
Apr 7
First Quarter
Apr 15
Full

Hourly Weather History & Observations

Time (CDT) Temp. Windchill Dew Point Humidity Pressure Visibility Wind Dir Wind Speed Gust Speed Precip Events Conditions
12:15 AM 42.6 °F 39.0 °F 33.1 °F 69% 30.00 in 10.0 mi East 5.8 mph - N/A   Scattered Clouds
12:35 AM 40.8 °F 36.2 °F 33.1 °F 74% 29.99 in 10.0 mi East 6.9 mph - N/A   Scattered Clouds
12:55 AM 40.8 °F 35.6 °F 32.9 °F 73% 29.99 in 10.0 mi East 8.1 mph - N/A   Clear
1:15 AM 40.5 °F 36.5 °F 32.9 °F 74% 29.98 in 10.0 mi East 5.8 mph - N/A   Clear
1:35 AM 39.7 °F 34.3 °F 32.9 °F 77% 29.98 in 10.0 mi East 8.1 mph - N/A   Clear
1:55 AM 38.5 °F 34.1 °F 32.2 °F 78% 29.98 in 10.0 mi East 5.8 mph - N/A   Clear
2:15 AM 37.9 °F 32.7 °F 32.2 °F 80% 29.97 in 10.0 mi East 6.9 mph - N/A   Clear
2:35 AM 36.9 °F 33.1 °F 32.0 °F 83% 29.97 in 10.0 mi East 4.6 mph - N/A   Clear
2:55 AM 39.2 °F 33.6 °F 32.0 °F 75% 29.96 in 10.0 mi East 8.1 mph - N/A   Clear
3:15 AM 37.4 °F 34.9 °F 32.0 °F 81% 29.96 in 10.0 mi East 3.5 mph - N/A   Clear
3:35 AM 37.2 °F 34.7 °F 32.0 °F 81% 29.95 in 10.0 mi East 3.5 mph - N/A   Mostly Cloudy
3:55 AM 38.3 °F 33.9 °F 32.4 °F 79% 29.95 in 10.0 mi East 5.8 mph - N/A   Overcast
4:15 AM 37.8 °F 31.8 °F 32.0 °F 80% 29.94 in 10.0 mi East 8.1 mph - N/A   Mostly Cloudy
4:35 AM 38.8 °F 33.8 °F 32.2 °F 77% 29.94 in 10.0 mi East 6.9 mph - N/A   Mostly Cloudy
4:55 AM 39.2 °F 35.0 °F 32.0 °F 75% 29.94 in 10.0 mi East 5.8 mph - N/A   Mostly Cloudy
5:15 AM 38.8 °F 36.5 °F 32.0 °F 76% 29.94 in 10.0 mi ESE 3.5 mph - N/A   Scattered Clouds
5:35 AM 37.0 °F 32.4 °F 32.0 °F 82% 29.94 in 10.0 mi East 5.8 mph - N/A   Scattered Clouds
5:55 AM 36.9 °F 31.4 °F 31.8 °F 82% 29.93 in 10.0 mi East 6.9 mph - N/A   Clear
6:15 AM 37.4 °F 32.8 °F 31.6 °F 80% 29.94 in 10.0 mi East 5.8 mph - N/A   Clear
6:35 AM 33.8 °F 30.8 °F 30.0 °F 86% 29.93 in 10.0 mi ESE 3.5 mph - N/A   Clear
6:55 AM 34.9 °F 32.0 °F 30.4 °F 84% 29.94 in 10.0 mi ENE 3.5 mph - N/A   Clear
7:15 AM 37.4 °F 34.9 °F 32.0 °F 81% 29.93 in 10.0 mi ESE 3.5 mph - N/A   Clear
7:35 AM 37.2 °F 34.7 °F 32.4 °F 83% 29.94 in 10.0 mi East 3.5 mph - N/A   Clear
7:55 AM 38.5 °F 35.0 °F 32.4 °F 79% 29.94 in 10.0 mi East 4.6 mph - N/A   Clear
8:15 AM 39.6 °F 37.4 °F 33.6 °F 79% 29.94 in 10.0 mi East 3.5 mph - N/A   Clear
8:35 AM 42.4 °F - 34.0 °F 72% 29.95 in 10.0 mi Calm Calm - N/A   Clear
8:55 AM 44.8 °F 43.3 °F 34.2 °F 66% 29.95 in 10.0 mi ESE 3.5 mph - N/A   Clear
9:15 AM 46.6 °F - 35.4 °F 65% 29.95 in 10.0 mi SE 3.5 mph - N/A   Clear
9:35 AM 48.7 °F - 36.9 °F 64% 29.95 in 10.0 mi SSE 4.6 mph - N/A   Clear
9:55 AM 51.4 °F - 37.4 °F 59% 29.94 in 10.0 mi SSW 3.5 mph - N/A   Clear
10:15 AM 55.2 °F - 36.5 °F 49% 29.94 in 10.0 mi WSW 12.7 mph - N/A   Clear
10:35 AM 56.1 °F - 37.0 °F 49% 29.93 in 10.0 mi SW 12.7 mph - N/A   Clear
10:55 AM 57.6 °F - 36.1 °F 45% 29.93 in 10.0 mi SW 13.8 mph - N/A   Clear
11:15 AM 58.5 °F - 36.1 °F 43% 29.93 in 10.0 mi SW 13.8 mph 18.4 mph N/A   Clear
11:35 AM 59.2 °F - 35.8 °F 42% 29.92 in 10.0 mi SW 12.7 mph 17.3 mph N/A   Clear
11:55 AM 61.2 °F - 36.0 °F 39% 29.91 in 10.0 mi SSW 10.4 mph - N/A   Clear
12:15 PM 61.2 °F - 35.2 °F 38% 29.91 in 10.0 mi SSW 9.2 mph - N/A   Clear
12:35 PM 62.4 °F - 36.3 °F 38% 29.90 in 10.0 mi SSW 12.7 mph - N/A   Clear
12:55 PM 62.6 °F - 35.6 °F 37% 29.90 in 10.0 mi SSW 12.7 mph - N/A   Clear
1:15 PM 63.5 °F - 36.3 °F 36% 29.88 in 10.0 mi SW 9.2 mph - N/A   Clear
1:35 PM 65.1 °F - 37.0 °F 35% 29.87 in 10.0 mi SSW 15.0 mph 19.6 mph N/A   Clear
1:55 PM 66.2 °F - 37.4 °F 35% 29.86 in 10.0 mi SSW 16.1 mph - N/A   Clear
2:15 PM 67.1 °F - 37.0 °F 33% 29.84 in 10.0 mi SSW 18.4 mph 25.3 mph N/A   Clear
2:35 PM 67.6 °F - 37.8 °F 33% 29.83 in 10.0 mi South 15.0 mph 20.7 mph N/A   Clear
2:55 PM 68.9 °F - 37.4 °F 32% 29.82 in 10.0 mi SSW 18.4 mph 24.2 mph N/A   Clear
3:15 PM 69.8 °F - 37.6 °F 31% 29.81 in 10.0 mi SSW 13.8 mph 21.9 mph N/A   Clear
3:35 PM 70.0 °F - 37.6 °F 31% 29.81 in 10.0 mi SSW 23.0 mph - N/A   Clear
3:55 PM 68.2 °F - 35.4 °F 30% 29.80 in 10.0 mi SSW 20.7 mph 28.8 mph N/A   Clear
4:15 PM 68.5 °F - 36.3 °F 31% 29.80 in 10.0 mi SSW 18.4 mph 25.3 mph N/A   Clear
4:35 PM 68.5 °F - 36.0 °F 30% 29.79 in 10.0 mi SSW 20.7 mph 24.2 mph N/A   Clear
4:55 PM 66.7 °F - 35.2 °F 31% 29.79 in 10.0 mi SSW 18.4 mph 26.5 mph N/A   Clear
5:15 PM 65.7 °F - 37.4 °F 35% 29.78 in 10.0 mi South 12.7 mph - N/A   Clear
5:35 PM 64.9 °F - 37.0 °F 36% 29.78 in 10.0 mi South 17.3 mph 21.9 mph N/A   Clear
5:55 PM 64.4 °F - 36.3 °F 35% 29.78 in 10.0 mi SSW 13.8 mph - N/A   Clear
6:15 PM 63.3 °F - 36.7 °F 37% 29.78 in 10.0 mi South 12.7 mph - N/A   Clear
6:35 PM 62.2 °F - 37.4 °F 40% 29.78 in 10.0 mi South 15.0 mph 20.7 mph N/A   Clear
6:55 PM 60.4 °F - 37.8 °F 43% 29.77 in 10.0 mi South 12.7 mph - N/A   Clear
7:15 PM 59.0 °F - 38.3 °F 46% 29.78 in 10.0 mi SSW 11.5 mph - N/A   Clear
7:35 PM 59.7 °F - 37.0 °F 43% 29.78 in 10.0 mi SSW 12.7 mph 18.4 mph N/A   Clear
7:55 PM 59.2 °F - 37.2 °F 44% 29.78 in 10.0 mi SSW 12.7 mph - N/A   Mostly Cloudy
8:15 PM 59.0 °F - 37.2 °F 44% 29.78 in 10.0 mi SSW 13.8 mph - N/A   Scattered Clouds
8:35 PM 58.1 °F - 37.0 °F 45% 29.77 in 10.0 mi SSW 16.1 mph 20.7 mph N/A   Clear
8:55 PM 57.4 °F - 37.4 °F 47% 29.77 in 10.0 mi SSW 13.8 mph - N/A   Clear
9:15 PM 56.7 °F - 37.0 °F 48% 29.78 in 10.0 mi SSW 15.0 mph 19.6 mph N/A   Clear
9:35 PM 56.1 °F - 37.4 °F 49% 29.79 in 10.0 mi SW 13.8 mph - N/A   Clear
9:55 PM 55.0 °F - 37.8 °F 52% 29.81 in 10.0 mi SW 12.7 mph - N/A   Clear
10:15 PM 53.1 °F - 38.7 °F 58% 29.84 in 10.0 mi WNW 24.2 mph 31.1 mph N/A   Clear
10:35 PM 51.1 °F - 39.2 °F 64% 29.86 in 10.0 mi NW 13.8 mph 24.2 mph N/A   Scattered Clouds
10:55 PM 49.5 °F - 39.0 °F 67% 29.87 in 10.0 mi NW 15.0 mph 19.6 mph N/A   Mostly Cloudy
11:15 PM 50.0 °F - 37.6 °F 62% 29.89 in 10.0 mi NW 12.7 mph - N/A   Overcast
11:35 PM 49.1 °F - 37.0 °F 63% 29.89 in 10.0 mi NW 11.5 mph - N/A   Overcast
11:55 PM 48.4 °F - 36.3 °F 63% 29.90 in 10.0 mi NW 11.5 mph 16.1 mph N/A   Overcast